When you browse on this site, cookies collect data to enhance your experience and personalize the content and advertising you see.
Visit our Privacy Policy to learn more. By continuing to use the site, you agree to this use of cookies and data.
  • In Denmark
  • List of Countries
  • For 7 days
  • Water Temperature
  • Satellite Maps
  • Weather Map
  • Weather Widgets
  • user-avatar
    Login

    Hourly Weather Bagdad

    Today, 19 April, Friday

    Time Temperature Precipitation Wind Pressure Humidity
    00:00 +22°C° 0 mm 5 mps 755 mmHg 42%
    01:00 +21°C° 0 mm 5 mps 755 mmHg 43%
    02:00 +21°C° 0 mm 4 mps 755 mmHg 44%
    03:00 +20°C° 0 mm 4 mps 754 mmHg 44%
    04:00 +20°C° 0 mm 3 mps 754 mmHg 45%
    05:00 +20°C° 0 mm 3 mps 754 mmHg 45%
    06:00 +19°C° 0 mm 3 mps 754 mmHg 46%
    07:00 +21°C° 0 mm 2 mps 754 mmHg 42%
    08:00 +23°C° 0 mm 2 mps 754 mmHg 38%
    09:00 +25°C° 0 mm 1 mps 754 mmHg 33%
    10:00 +26°C° 0 mm 2 mps 754 mmHg 30%
    11:00 +27°C° 0 mm 3 mps 754 mmHg 27%
    12:00 +29°C° 0 mm 3 mps 754 mmHg 24%
    13:00 +29°C° 0 mm 5 mps 753 mmHg 22%
    14:00 +30°C° 0 mm 7 mps 753 mmHg 20%
    15:00 +31°C° 0 mm 8 mps 752 mmHg 18%
    16:00 +31°C° 0 mm 8 mps 752 mmHg 17%
    17:00 +29°C° 0 mm 8 mps 752 mmHg 16%
    18:00 +29°C° 0 mm 9 mps 752 mmHg 15%
    19:00 +27°C° 0 mm 7 mps 753 mmHg 16%
    20:00 +26°C° 0 mm 6 mps 753 mmHg 16%
    21:00 +25°C° 0 mm 5 mps 754 mmHg 17%
    22:00 +23°C° 0 mm 4 mps 754 mmHg 24%
    23:00 +22°C° 0 mm 4 mps 754 mmHg 31%

    Tomorrow, 20 April, Saturday

    Time Temperature Precipitation Wind Pressure Humidity
    00:00 +21°C° 0 mm 3 mps 754 mmHg 38%
    01:00 +20°C° 0 mm 3 mps 754 mmHg 39%
    02:00 +20°C° 0 mm 3 mps 754 mmHg 41%
    03:00 +19°C° 0 mm 3 mps 754 mmHg 42%
    04:00 +19°C° 0 mm 3 mps 754 mmHg 44%
    05:00 +19°C° 0 mm 3 mps 755 mmHg 45%
    06:00 +18°C° 0 mm 2 mps 755 mmHg 46%
    07:00 +19°C° 0 mm 3 mps 756 mmHg 44%
    08:00 +20°C° 0 mm 3 mps 756 mmHg 41%
    09:00 +21°C° 0 mm 4 mps 757 mmHg 38%
    10:00 +22°C° 0 mm 4 mps 757 mmHg 34%
    11:00 +23°C° 0 mm 4 mps 757 mmHg 30%
    12:00 +25°C° 0 mm 4 mps 757 mmHg 25%
    13:00 +26°C° 0 mm 4 mps 756 mmHg 24%
    14:00 +26°C° 0 mm 4 mps 756 mmHg 22%
    15:00 +26°C° 0 mm 4 mps 755 mmHg 20%
    16:00 +26°C° 0 mm 4 mps 755 mmHg 20%
    17:00 +26°C° 0 mm 4 mps 755 mmHg 20%
    18:00 +26°C° 0 mm 3 mps 755 mmHg 20%
    19:00 +25°C° 0 mm 3 mps 755 mmHg 21%
    20:00 +24°C° 0 mm 3 mps 756 mmHg 23%
    21:00 +24°C° 0 mm 3 mps 756 mmHg 24%
    22:00 +22°C° 0 mm 3 mps 756 mmHg 25%
    23:00 +22°C° 0 mm 3 mps 756 mmHg 25%

    Day after tomorrow, 21 April, Sunday

    Time Temperature Precipitation Wind Pressure Humidity
    00:00 +21°C° 0 mm 3 mps 756 mmHg 26%
    01:00 +21°C° 0 mm 3 mps 755 mmHg 27%
    02:00 +20°C° 0 mm 3 mps 755 mmHg 27%
    03:00 +20°C° 0 mm 3 mps 755 mmHg 28%
    04:00 +20°C° 0 mm 3 mps 755 mmHg 28%
    05:00 +20°C° 0 mm 3 mps 754 mmHg 29%
    06:00 +19°C° 0 mm 3 mps 754 mmHg 30%
    07:00 +21°C° 0 mm 4 mps 755 mmHg 27%
    08:00 +23°C° 0 mm 4 mps 755 mmHg 23%
    09:00 +26°C° 0 mm 4 mps 755 mmHg 20%
    10:00 +27°C° 0 mm 4 mps 755 mmHg 18%
    11:00 +27°C° 0 mm 3 mps 754 mmHg 15%
    12:00 +28°C° 0 mm 3 mps 754 mmHg 13%
    13:00 +29°C° 0 mm 3 mps 753 mmHg 12%
    14:00 +29°C° 0 mm 3 mps 753 mmHg 11%
    15:00 +30°C° 0 mm 3 mps 752 mmHg 11%
    16:00 +30°C° 0 mm 3 mps 752 mmHg 11%
    17:00 +30°C° 0 mm 4 mps 751 mmHg 11%
    18:00 +29°C° 0 mm 4 mps 751 mmHg 11%
    19:00 +29°C° 0 mm 4 mps 751 mmHg 11%
    20:00 +29°C° 0 mm 4 mps 751 mmHg 12%
    21:00 +28°C° 0 mm 4 mps 751 mmHg 12%
    22:00 +26°C° 0.1 mm 6 mps 751 mmHg 22%
    23:00 +22°C° 0.1 mm 9 mps 751 mmHg 32%

    22 April, Monday

    Time Temperature Precipitation Wind Pressure Humidity
    00:00 +19°C° 0.1 mm 11 mps 751 mmHg 43%
    01:00 +19°C° 0 mm 9 mps 751 mmHg 40%
    02:00 +20°C° 0 mm 6 mps 751 mmHg 37%
    03:00 +19°C° 0 mm 4 mps 751 mmHg 34%
    04:00 +19°C° 0 mm 5 mps 751 mmHg 34%
    05:00 +19°C° 0 mm 6 mps 751 mmHg 33%
    06:00 +17°C° 0 mm 7 mps 752 mmHg 33%
    07:00 +18°C° 0 mm 7 mps 752 mmHg 34%
    08:00 +18°C° 0 mm 7 mps 753 mmHg 35%
    09:00 +20°C° 0 mm 7 mps 753 mmHg 36%
    10:00 +21°C° 0 mm 7 mps 753 mmHg 33%
    11:00 +22°C° 0 mm 7 mps 753 mmHg 31%
    12:00 +23°C° 0 mm 7 mps 753 mmHg 28%
    13:00 +23°C° 0 mm 7 mps 753 mmHg 27%
    14:00 +24°C° 0 mm 7 mps 753 mmHg 25%
    15:00 +24°C° 0 mm 7 mps 752 mmHg 23%
    16:00 +24°C° 0 mm 7 mps 752 mmHg 24%
    17:00 +23°C° 0 mm 6 mps 753 mmHg 25%
    18:00 +23°C° 0 mm 6 mps 753 mmHg 26%
    19:00 +22°C° 0 mm 6 mps 754 mmHg 28%
    20:00 +22°C° 0 mm 7 mps 754 mmHg 31%
    21:00 +21°C° 0 mm 7 mps 755 mmHg 34%
    22:00 +21°C° 0 mm 7 mps 755 mmHg 37%
    23:00 +20°C° 0 mm 7 mps 755 mmHg 41%

    23 April, Tuesday

    Time Temperature Precipitation Wind Pressure Humidity
    00:00 +19°C° 0 mm 6 mps 755 mmHg 44%
    01:00 +19°C° 0 mm 6 mps 756 mmHg 46%
    02:00 +19°C° 0 mm 5 mps 756 mmHg 47%
    03:00 +17°C° 0 mm 5 mps 756 mmHg 48%
    04:00 +18°C° 0 mm 4 mps 756 mmHg 48%
    05:00 +18°C° 0 mm 4 mps 757 mmHg 48%
    06:00 +18°C° 0 mm 4 mps 757 mmHg 48%
    07:00 +19°C° 0 mm 4 mps 758 mmHg 45%
    08:00 +20°C° 0 mm 4 mps 758 mmHg 42%
    09:00 +21°C° 0 mm 5 mps 759 mmHg 38%
    10:00 +22°C° 0 mm 6 mps 759 mmHg 35%
    11:00 +23°C° 0 mm 6 mps 759 mmHg 32%
    12:00 +26°C° 0 mm 7 mps 759 mmHg 28%
    13:00 +26°C° 0 mm 7 mps 758 mmHg 27%
    14:00 +26°C° 0 mm 8 mps 758 mmHg 25%
    15:00 +27°C° 0 mm 8 mps 758 mmHg 24%
    16:00 +26°C° 0 mm 8 mps 758 mmHg 25%
    17:00 +26°C° 0 mm 7 mps 758 mmHg 26%
    18:00 +24°C° 0 mm 7 mps 758 mmHg 27%
    19:00 +24°C° 0 mm 6 mps 758 mmHg 28%
    20:00 +23°C° 0 mm 5 mps 759 mmHg 29%
    21:00 +23°C° 0 mm 4 mps 759 mmHg 31%
    22:00 +22°C° 0 mm 4 mps 759 mmHg 31%
    23:00 +22°C° 0 mm 4 mps 759 mmHg 32%

    24 April, Wednesday

    Time Temperature Precipitation Wind Pressure Humidity
    00:00 +21°C° 0 mm 5 mps 759 mmHg 33%
    01:00 +21°C° 0 mm 4 mps 759 mmHg 34%
    02:00 +21°C° 0 mm 4 mps 759 mmHg 35%
    03:00 +20°C° 0 mm 4 mps 759 mmHg 37%
    04:00 +20°C° 0 mm 4 mps 759 mmHg 38%
    05:00 +20°C° 0 mm 4 mps 759 mmHg 40%
    06:00 +19°C° 0 mm 4 mps 760 mmHg 41%
    07:00 +21°C° 0 mm 5 mps 760 mmHg 37%
    08:00 +23°C° 0 mm 6 mps 760 mmHg 33%
    09:00 +24°C° 0 mm 6 mps 760 mmHg 28%
    10:00 +26°C° 0 mm 6 mps 760 mmHg 25%
    11:00 +27°C° 0 mm 6 mps 760 mmHg 23%
    12:00 +28°C° 0 mm 6 mps 759 mmHg 20%
    13:00 +28°C° 0 mm 6 mps 759 mmHg 19%
    14:00 +29°C° 0 mm 7 mps 758 mmHg 18%
    15:00 +29°C° 0 mm 7 mps 758 mmHg 17%
    16:00 +28°C° 0 mm 7 mps 758 mmHg 18%
    17:00 +28°C° 0 mm 6 mps 758 mmHg 18%
    18:00 +27°C° 0 mm 6 mps 758 mmHg 18%
    19:00 +27°C° 0 mm 6 mps 758 mmHg 19%
    20:00 +26°C° 0 mm 5 mps 758 mmHg 20%
    21:00 +25°C° 0 mm 4 mps 758 mmHg 21%
    22:00 +25°C° 0 mm 4 mps 758 mmHg 23%
    23:00 +23°C° 0 mm 4 mps 758 mmHg 24%
    Show more